When you browse on this site, cookies collect data to enhance your experience and personalize the content and advertising you see.
Visit our Privacy Policy to learn more. By continuing to use the site, you agree to this use of cookies and data.
  • In France
  • List of Countries
  • For 7 days
  • Water Temperature
  • Satellite Maps
  • Weather Map
  • Weather Widgets
  • user-avatar
    Login

    Hourly Weather Haleb

    Today, 20 June, Thursday

    Time Temperature Precipitation Wind Pressure Humidity
    00:00 +22°C° 0 mm 6 mps 719 mmHg 81%
    01:00 +22°C° 0 mm 6 mps 719 mmHg 83%
    02:00 +21°C° 0 mm 5 mps 718 mmHg 84%
    03:00 +21°C° 0 mm 5 mps 718 mmHg 84%
    04:00 +21°C° 0 mm 5 mps 718 mmHg 84%
    05:00 +21°C° 0 mm 5 mps 718 mmHg 84%
    06:00 +23°C° 0 mm 6 mps 718 mmHg 74%
    07:00 +24°C° 0 mm 7 mps 719 mmHg 65%
    08:00 +27°C° 0 mm 7 mps 719 mmHg 55%
    09:00 +29°C° 0 mm 8 mps 719 mmHg 49%
    10:00 +31°C° 0 mm 8 mps 719 mmHg 43%
    11:00 +33°C° 0 mm 8 mps 719 mmHg 37%
    12:00 +33°C° 0 mm 9 mps 719 mmHg 37%
    13:00 +33°C° 0 mm 10 mps 719 mmHg 37%
    14:00 +33°C° 0 mm 10 mps 719 mmHg 38%
    15:00 +32°C° 0 mm 10 mps 718 mmHg 40%
    16:00 +31°C° 0 mm 10 mps 718 mmHg 42%
    17:00 +29°C° 0 mm 10 mps 718 mmHg 45%
    18:00 +27°C° 0 mm 9 mps 718 mmHg 52%
    19:00 +26°C° 0 mm 9 mps 718 mmHg 59%
    20:00 +23°C° 0 mm 8 mps 718 mmHg 67%
    21:00 +23°C° 0 mm 8 mps 719 mmHg 71%
    22:00 +22°C° 0 mm 7 mps 719 mmHg 76%
    23:00 +22°C° 0 mm 7 mps 719 mmHg 80%

    Tomorrow, 21 June, Friday

    Time Temperature Precipitation Wind Pressure Humidity
    00:00 +22°C° 0 mm 6 mps 719 mmHg 82%
    01:00 +22°C° 0 mm 6 mps 718 mmHg 83%
    02:00 +22°C° 0 mm 6 mps 718 mmHg 85%
    03:00 +21°C° 0 mm 5 mps 718 mmHg 85%
    04:00 +21°C° 0 mm 5 mps 718 mmHg 86%
    05:00 +21°C° 0 mm 5 mps 718 mmHg 87%
    06:00 +23°C° 0 mm 5 mps 719 mmHg 76%
    07:00 +26°C° 0 mm 6 mps 719 mmHg 65%
    08:00 +28°C° 0 mm 7 mps 719 mmHg 54%
    09:00 +29°C° 0 mm 7 mps 720 mmHg 49%
    10:00 +32°C° 0 mm 7 mps 720 mmHg 43%
    11:00 +34°C° 0 mm 7 mps 720 mmHg 38%
    12:00 +34°C° 0 mm 7 mps 719 mmHg 38%
    13:00 +34°C° 0 mm 8 mps 719 mmHg 38%
    14:00 +34°C° 0 mm 8 mps 719 mmHg 38%
    15:00 +33°C° 0 mm 9 mps 719 mmHg 42%
    16:00 +32°C° 0 mm 9 mps 718 mmHg 45%
    17:00 +31°C° 0 mm 9 mps 718 mmHg 49%
    18:00 +28°C° 0 mm 8 mps 718 mmHg 56%
    19:00 +27°C° 0 mm 8 mps 718 mmHg 63%
    20:00 +24°C° 0 mm 7 mps 719 mmHg 70%
    21:00 +24°C° 0 mm 7 mps 719 mmHg 73%
    22:00 +23°C° 0 mm 6 mps 719 mmHg 76%
    23:00 +23°C° 0 mm 6 mps 719 mmHg 79%

    Day after tomorrow, 22 June, Saturday

    Time Temperature Precipitation Wind Pressure Humidity
    00:00 +22°C° 0 mm 5 mps 719 mmHg 82%
    01:00 +22°C° 0 mm 5 mps 719 mmHg 84%
    02:00 +22°C° 0 mm 5 mps 718 mmHg 86%
    03:00 +21°C° 0 mm 5 mps 718 mmHg 87%
    04:00 +21°C° 0 mm 5 mps 718 mmHg 88%
    05:00 +21°C° 0 mm 5 mps 718 mmHg 89%
    06:00 +23°C° 0 mm 5 mps 719 mmHg 79%
    07:00 +26°C° 0 mm 6 mps 719 mmHg 68%
    08:00 +28°C° 0 mm 7 mps 720 mmHg 58%
    09:00 +30°C° 0 mm 7 mps 720 mmHg 52%
    10:00 +33°C° 0 mm 7 mps 720 mmHg 46%
    11:00 +34°C° 0 mm 7 mps 720 mmHg 40%
    12:00 +35°C° 0 mm 8 mps 719 mmHg 39%
    13:00 +35°C° 0 mm 8 mps 719 mmHg 38%
    14:00 +37°C° 0 mm 8 mps 719 mmHg 37%
    15:00 +34°C° 0 mm 8 mps 719 mmHg 40%
    16:00 +33°C° 0 mm 8 mps 719 mmHg 43%
    17:00 +32°C° 0 mm 8 mps 718 mmHg 46%
    18:00 +31°C° 0 mm 8 mps 719 mmHg 52%
    19:00 +28°C° 0 mm 7 mps 719 mmHg 58%
    20:00 +26°C° 0 mm 6 mps 719 mmHg 63%
    21:00 +26°C° 0 mm 6 mps 719 mmHg 67%
    22:00 +25°C° 0 mm 5 mps 719 mmHg 71%
    23:00 +23°C° 0 mm 5 mps 719 mmHg 75%

    23 June, Sunday

    Time Temperature Precipitation Wind Pressure Humidity
    00:00 +22°C° 0 mm 4 mps 719 mmHg 79%
    01:00 +22°C° 0 mm 4 mps 719 mmHg 82%
    02:00 +21°C° 0 mm 4 mps 719 mmHg 85%
    03:00 +21°C° 0 mm 4 mps 719 mmHg 85%
    04:00 +21°C° 0 mm 3 mps 719 mmHg 85%
    05:00 +21°C° 0 mm 3 mps 719 mmHg 86%
    06:00 +23°C° 0 mm 4 mps 719 mmHg 77%
    07:00 +26°C° 0 mm 4 mps 720 mmHg 68%
    08:00 +28°C° 0 mm 5 mps 720 mmHg 58%
    09:00 +30°C° 0 mm 5 mps 720 mmHg 51%
    10:00 +33°C° 0 mm 5 mps 720 mmHg 44%
    11:00 +35°C° 0 mm 5 mps 720 mmHg 37%
    12:00 +36°C° 0 mm 6 mps 720 mmHg 34%
    13:00 +38°C° 0 mm 6 mps 720 mmHg 31%
    14:00 +39°C° 0 mm 6 mps 720 mmHg 28%
    15:00 +38°C° 0 mm 7 mps 720 mmHg 31%
    16:00 +36°C° 0 mm 7 mps 719 mmHg 34%
    17:00 +35°C° 0 mm 7 mps 719 mmHg 37%
    18:00 +33°C° 0 mm 6 mps 719 mmHg 44%
    19:00 +30°C° 0 mm 6 mps 719 mmHg 51%
    20:00 +27°C° 0 mm 5 mps 719 mmHg 57%
    21:00 +27°C° 0 mm 5 mps 719 mmHg 61%
    22:00 +26°C° 0 mm 4 mps 719 mmHg 65%
    23:00 +25°C° 0 mm 4 mps 719 mmHg 69%

    24 June, Monday

    Time Temperature Precipitation Wind Pressure Humidity
    00:00 +23°C° 0 mm 4 mps 719 mmHg 72%
    01:00 +24°C° 0 mm 3 mps 719 mmHg 75%
    02:00 +22°C° 0 mm 3 mps 719 mmHg 77%
    03:00 +22°C° 0 mm 3 mps 719 mmHg 78%
    04:00 +22°C° 0 mm 3 mps 719 mmHg 79%
    05:00 +22°C° 0 mm 3 mps 719 mmHg 80%
    06:00 +25°C° 0 mm 3 mps 719 mmHg 71%
    07:00 +27°C° 0 mm 4 mps 720 mmHg 62%
    08:00 +30°C° 0 mm 4 mps 720 mmHg 53%
    09:00 +33°C° 0 mm 4 mps 720 mmHg 46%
    10:00 +35°C° 0 mm 4 mps 720 mmHg 38%
    11:00 +37°C° 0 mm 4 mps 720 mmHg 31%
    12:00 +38°C° 0 mm 4 mps 720 mmHg 27%
    13:00 +41°C° 0 mm 4 mps 720 mmHg 23%
    14:00 +42°C° 0 mm 4 mps 720 mmHg 19%
    15:00 +41°C° 0 mm 5 mps 719 mmHg 21%
    16:00 +40°C° 0 mm 6 mps 719 mmHg 23%
    17:00 +40°C° 0 mm 7 mps 719 mmHg 25%
    18:00 +36°C° 0 mm 6 mps 719 mmHg 33%
    19:00 +34°C° 0 mm 5 mps 719 mmHg 40%
    20:00 +30°C° 0 mm 4 mps 719 mmHg 48%
    21:00 +29°C° 0 mm 4 mps 719 mmHg 51%
    22:00 +28°C° 0 mm 4 mps 719 mmHg 54%
    23:00 +27°C° 0 mm 4 mps 719 mmHg 58%

    25 June, Tuesday

    Time Temperature Precipitation Wind Pressure Humidity
    00:00 +27°C° 0 mm 4 mps 719 mmHg 60%
    01:00 +26°C° 0 mm 3 mps 719 mmHg 63%
    02:00 +25°C° 0 mm 3 mps 719 mmHg 65%
    03:00 +25°C° 0 mm 3 mps 719 mmHg 65%
    04:00 +25°C° 0 mm 3 mps 719 mmHg 64%
    05:00 +25°C° 0 mm 2 mps 719 mmHg 64%
    06:00 +28°C° 0 mm 3 mps 719 mmHg 55%
    07:00 +30°C° 0 mm 3 mps 720 mmHg 47%
    08:00 +33°C° 0 mm 3 mps 720 mmHg 39%
    09:00 +35°C° 0 mm 3 mps 720 mmHg 33%
    10:00 +38°C° 0 mm 3 mps 720 mmHg 28%
    11:00 +40°C° 0 mm 3 mps 720 mmHg 22%
    12:00 +42°C° 0 mm 4 mps 720 mmHg 19%
    13:00 +43°C° 0 mm 4 mps 720 mmHg 16%
    14:00 +44°C° 0 mm 4 mps 719 mmHg 14%
    15:00 +43°C° 0 mm 5 mps 719 mmHg 16%
    16:00 +44°C° 0 mm 6 mps 719 mmHg 18%
    17:00 +43°C° 0 mm 7 mps 719 mmHg 20%
    18:00 +39°C° 0 mm 6 mps 719 mmHg 27%
    19:00 +35°C° 0 mm 5 mps 719 mmHg 33%
    20:00 +33°C° 0 mm 5 mps 719 mmHg 39%
    21:00 +32°C° 0 mm 4 mps 719 mmHg 43%
    22:00 +30°C° 0 mm 4 mps 719 mmHg 46%
    23:00 +28°C° 0 mm 4 mps 719 mmHg 50%
    Show more